CZ-6A DEB

Satellite information

Favourite Embed

Satellite Type and Status

DEBRISIN ORBIT

Key statistics

Satellite CZ-6A DEB at a glance.

Uptime

971

Days in orbit

Revolutions

≈ 14.9

Per day

Orbit

SSO

Sun Synchronous Orbit

Inclination

98.7

Latest

Satellite identification and parameters

Extended collection of information and parameters for CZ-6A DEB.

Object identification

Identified? True

Debris? True

Object name: CZ-6A DEB

International designator: 2022-151AAD

Object number (NORAD): 55881

Object ID (CCSDS): 55881

Country: PEOPLES REPUBLIC OF CHINA (PRC)

Current information (Y/N): Y

RCS size: SMALL

Orbital parameters

Period: 96.498 minutes

Inclination: 98.6643 deg

SMA: 6969.024 km

Apoapsis: 629.75 km

Periapsis: 552.028 km

RAAN: 250.5637 deg

Eccentricy: 0.0055762

Argument of periapsis: 215.9155 deg

Mean anomaly: 143.8308 deg

Mean motion: 14.92261152 rev/day

Mean motion (dot): 0.00023006 rev/day2

B* drag term: 0.0021886 1/REarth

Two-line elements (TLE)

Creation date: July 9, 2025, 2:22 a.m.

Reference frame: TEME

Reference center: EARTH

Epoch: July 8, 2025, 3:12 p.m. UTC

TLE line 0: 0 CZ-6A DEB

TLE line 1: 1 55881U 22151AAD 25189.63355960 .00023006 00000-0 21886-2 0 9998

TLE line 2: 2 55881 98.6643 250.5637 0055762 215.9155 143.8308 14.92261152128625

Live tracking on map

Real-time ground track for satellite CZ-6A DEB.

In-orbit conjunctions

A list of the most updated potential collisions computed for object CZ-6A DEB.

Target Orbit TCA Probability of collision Miss distance Type
EXPLORER 31 (ISIS-X) HEO 2024-10-10 06:46:48 0.0001140903 351.0 (m) PAYLOAD

Associated space launch

Chinese satellite reported for atmospheric/ocean/environmental/spatial parameter research purposes, details TBD.

CZ-6A DEB was lifted into orbit during the mission ‘Long March 6A | Yunhai 3’, on board a Long March 6A space rocket.

The launch took place on Nov. 11, 2022, 10:52 p.m. from Launch Complex 9A.

For more information about the launch, click the button.

Launch to space Long March 6A | Yunhai 3
Long March 6A | Yunhai 3

Agency: N/A

Status: Launch Successful

Launch date: Nov. 11, 2022, 10:52 p.m. UTC

Rocket: Long March 6A

Launch pad: Launch Complex 9A

Location: Taiyuan Satellite Launch Center, People's Republic of China

...

Latest news about this satellite

There are no fresh news available about this satellite. Check back as we update our databases every day.


Newsletter sign-up

Weekly statistics, charts and insights to help you stay on top of the space industry.